When you browse on this site, cookies collect data to enhance your experience and personalize the content and advertising you see.
Visit our Privacy Policy to learn more. By continuing to use the site, you agree to this use of cookies and data.
  • In Spain
  • List of Countries
  • For 7 days
  • Water Temperature
  • Weather Map
  • Weather Widgets
  • user-avatar
    Login

    Hourly Weather Madison

    Today, 21 September, Saturday

    Time Temperature Precipitation Wind Pressure Humidity
    00:00 +21°C° 0 mm 3 mps 739 mmHg 94%
    01:00 +21°C° 0 mm 3 mps 739 mmHg 95%
    02:00 +21°C° 0 mm 3 mps 738 mmHg 95%
    03:00 +21°C° 0 mm 4 mps 738 mmHg 96%
    04:00 +21°C° 0.5 mm 4 mps 738 mmHg 97%
    05:00 +21°C° 0.5 mm 4 mps 738 mmHg 97%
    06:00 +21°C° 0.5 mm 5 mps 738 mmHg 97%
    07:00 +22°C° 0.9 mm 5 mps 738 mmHg 96%
    08:00 +22°C° 0.9 mm 6 mps 738 mmHg 95%
    09:00 +23°C° 0.9 mm 7 mps 738 mmHg 94%
    10:00 +23°C° 0.1 mm 6 mps 737 mmHg 93%
    11:00 +23°C° 0.1 mm 6 mps 737 mmHg 93%
    12:00 +23°C° 0.1 mm 6 mps 737 mmHg 93%
    13:00 +23°C° 0.2 mm 7 mps 737 mmHg 92%
    14:00 +23°C° 0.2 mm 7 mps 736 mmHg 92%
    15:00 +23°C° 0.2 mm 8 mps 736 mmHg 91%
    16:00 +23°C° 0 mm 7 mps 736 mmHg 91%
    17:00 +23°C° 0 mm 6 mps 736 mmHg 92%
    18:00 +23°C° 0 mm 5 mps 736 mmHg 92%
    19:00 +22°C° 0 mm 5 mps 736 mmHg 93%
    20:00 +22°C° 0 mm 5 mps 736 mmHg 93%
    21:00 +22°C° 0 mm 5 mps 736 mmHg 94%
    22:00 +22°C° 0.3 mm 5 mps 736 mmHg 94%
    23:00 +22°C° 0.3 mm 6 mps 735 mmHg 94%

    Tomorrow, 22 September, Sunday

    Time Temperature Precipitation Wind Pressure Humidity
    00:00 +22°C° 0.3 mm 6 mps 734 mmHg 94%
    01:00 +22°C° 2.7 mm 6 mps 734 mmHg 95%
    02:00 +22°C° 2.7 mm 5 mps 734 mmHg 96%
    03:00 +22°C° 2.7 mm 5 mps 733 mmHg 97%
    04:00 +22°C° 2.2 mm 5 mps 733 mmHg 97%
    05:00 +21°C° 2.2 mm 4 mps 733 mmHg 97%
    06:00 +21°C° 2.2 mm 4 mps 733 mmHg 97%
    07:00 +22°C° 0.3 mm 4 mps 733 mmHg 95%
    08:00 +22°C° 0.3 mm 4 mps 734 mmHg 93%
    09:00 +23°C° 0.3 mm 4 mps 734 mmHg 91%
    10:00 +22°C° 0.7 mm 4 mps 734 mmHg 89%
    11:00 +22°C° 0.7 mm 3 mps 734 mmHg 88%
    12:00 +21°C° 0.7 mm 3 mps 734 mmHg 86%
    13:00 +20°C° 1.4 mm 3 mps 733 mmHg 88%
    14:00 +19°C° 1.4 mm 3 mps 733 mmHg 90%
    15:00 +18°C° 1.4 mm 4 mps 733 mmHg 92%
    16:00 +17°C° 0.5 mm 3 mps 733 mmHg 92%
    17:00 +17°C° 0.5 mm 3 mps 733 mmHg 93%
    18:00 +16°C° 0.5 mm 3 mps 732 mmHg 93%
    19:00 +16°C° 0 mm 3 mps 733 mmHg 93%
    20:00 +15°C° 0 mm 4 mps 734 mmHg 92%
    21:00 +14°C° 0 mm 4 mps 734 mmHg 91%
    22:00 +13°C° 0.1 mm 3 mps 734 mmHg 92%
    23:00 +12°C° 0.1 mm 3 mps 735 mmHg 92%

    Day after tomorrow, 23 September, Monday

    Time Temperature Precipitation Wind Pressure Humidity
    00:00 +12°C° 0.1 mm 2 mps 735 mmHg 93%
    01:00 +12°C° 0 mm 2 mps 735 mmHg 94%
    02:00 +11°C° 0 mm 3 mps 735 mmHg 94%
    03:00 +11°C° 0 mm 3 mps 736 mmHg 95%
    04:00 +10°C° 0 mm 3 mps 736 mmHg 95%
    05:00 +10°C° 0 mm 3 mps 736 mmHg 94%
    06:00 +10°C° 0 mm 3 mps 736 mmHg 94%
    07:00 +12°C° 0 mm 3 mps 737 mmHg 90%
    08:00 +14°C° 0 mm 4 mps 737 mmHg 86%
    09:00 +17°C° 0 mm 4 mps 737 mmHg 82%
    10:00 +18°C° 0 mm 4 mps 737 mmHg 75%
    11:00 +20°C° 0 mm 5 mps 737 mmHg 68%
    12:00 +21°C° 0 mm 5 mps 737 mmHg 61%
    13:00 +21°C° 0 mm 5 mps 737 mmHg 62%
    14:00 +22°C° 0 mm 5 mps 737 mmHg 63%
    15:00 +22°C° 0 mm 4 mps 737 mmHg 63%
    16:00 +20°C° 0 mm 4 mps 737 mmHg 69%
    17:00 +18°C° 0 mm 3 mps 737 mmHg 74%
    18:00 +17°C° 0 mm 3 mps 737 mmHg 80%
    19:00 +16°C° 0 mm 2 mps 737 mmHg 83%
    20:00 +15°C° 0 mm 2 mps 737 mmHg 86%
    21:00 +14°C° 0 mm 2 mps 738 mmHg 89%
    22:00 +14°C° 0 mm 2 mps 738 mmHg 89%
    23:00 +13°C° 0 mm 2 mps 737 mmHg 90%

    24 September, Tuesday

    Time Temperature Precipitation Wind Pressure Humidity
    00:00 +13°C° 0 mm 2 mps 737 mmHg 90%
    01:00 +13°C° 0 mm 2 mps 737 mmHg 90%
    02:00 +13°C° 0 mm 2 mps 737 mmHg 90%
    03:00 +12°C° 0 mm 2 mps 737 mmHg 90%
    04:00 +12°C° 0 mm 2 mps 737 mmHg 89%
    05:00 +12°C° 0 mm 2 mps 737 mmHg 89%
    06:00 +12°C° 0 mm 2 mps 737 mmHg 89%
    07:00 +13°C° 0 mm 3 mps 737 mmHg 84%
    08:00 +15°C° 0 mm 4 mps 737 mmHg 80%
    09:00 +18°C° 0 mm 4 mps 737 mmHg 75%
    10:00 +19°C° 0 mm 5 mps 737 mmHg 75%
    11:00 +21°C° 0 mm 5 mps 736 mmHg 75%
    12:00 +22°C° 0 mm 6 mps 735 mmHg 74%
    13:00 +22°C° 0 mm 6 mps 735 mmHg 75%
    14:00 +23°C° 0 mm 6 mps 734 mmHg 76%
    15:00 +23°C° 0 mm 7 mps 733 mmHg 77%
    16:00 +22°C° 0 mm 6 mps 733 mmHg 80%
    17:00 +21°C° 0 mm 6 mps 732 mmHg 84%
    18:00 +20°C° 0 mm 5 mps 732 mmHg 87%
    19:00 +20°C° 0 mm 6 mps 732 mmHg 87%
    20:00 +19°C° 0 mm 6 mps 732 mmHg 86%
    21:00 +18°C° 0 mm 7 mps 731 mmHg 86%
    22:00 +18°C° 0 mm 7 mps 731 mmHg 82%
    23:00 +20°C° 0 mm 7 mps 730 mmHg 78%

    25 September, Wednesday

    Time Temperature Precipitation Wind Pressure Humidity
    00:00 +20°C° 0 mm 7 mps 729 mmHg 73%
    01:00 +20°C° 0.1 mm 7 mps 729 mmHg 76%
    02:00 +18°C° 0.1 mm 8 mps 729 mmHg 78%
    03:00 +18°C° 0.1 mm 8 mps 729 mmHg 80%
    04:00 +18°C° 0.5 mm 7 mps 729 mmHg 85%
    05:00 +19°C° 0.5 mm 6 mps 729 mmHg 90%
    06:00 +19°C° 0.5 mm 5 mps 728 mmHg 95%
    07:00 +20°C° 0 mm 5 mps 729 mmHg 92%
    08:00 +21°C° 0 mm 5 mps 729 mmHg 90%
    09:00 +22°C° 0 mm 5 mps 729 mmHg 87%
    10:00 +23°C° 0 mm 5 mps 729 mmHg 79%
    11:00 +23°C° 0 mm 5 mps 729 mmHg 71%
    12:00 +25°C° 0 mm 5 mps 729 mmHg 63%
    13:00 +25°C° 0 mm 5 mps 729 mmHg 64%
    14:00 +23°C° 0 mm 4 mps 729 mmHg 65%
    15:00 +23°C° 0 mm 4 mps 728 mmHg 65%
    16:00 +22°C° 0 mm 4 mps 729 mmHg 69%
    17:00 +20°C° 0 mm 3 mps 729 mmHg 74%
    18:00 +18°C° 0 mm 3 mps 729 mmHg 78%
    19:00 +17°C° 0 mm 3 mps 730 mmHg 79%
    20:00 +16°C° 0 mm 3 mps 731 mmHg 80%
    21:00 +14°C° 0 mm 4 mps 731 mmHg 82%
    22:00 +13°C° 0 mm 3 mps 732 mmHg 84%
    23:00 +12°C° 0 mm 3 mps 732 mmHg 86%

    26 September, Thursday

    Time Temperature Precipitation Wind Pressure Humidity
    00:00 +11°C° 0 mm 3 mps 733 mmHg 89%
    01:00 +11°C° 0 mm 3 mps 733 mmHg 88%
    02:00 +10°C° 0 mm 3 mps 733 mmHg 88%
    03:00 +10°C° 0 mm 3 mps 734 mmHg 87%
    04:00 +9°C° 0 mm 2 mps 734 mmHg 86%
    05:00 +9°C° 0 mm 2 mps 735 mmHg 85%
    06:00 +8°C° 0 mm 2 mps 735 mmHg 84%
    07:00 +10°C° 0 mm 2 mps 735 mmHg 78%
    08:00 +13°C° 0 mm 1 mps 736 mmHg 72%
    09:00 +15°C° 0 mm 1 mps 736 mmHg 65%
    10:00 +16°C° 0 mm 1 mps 737 mmHg 61%
    11:00 +19°C° 0 mm 1 mps 737 mmHg 56%
    12:00 +20°C° 0 mm 1 mps 737 mmHg 52%
    13:00 +19°C° 0 mm 2 mps 737 mmHg 54%
    14:00 +19°C° 0 mm 2 mps 736 mmHg 57%
    15:00 +19°C° 0 mm 3 mps 736 mmHg 59%
    16:00 +18°C° 0 mm 3 mps 736 mmHg 64%
    17:00 +17°C° 0 mm 2 mps 736 mmHg 69%
    18:00 +16°C° 0 mm 2 mps 736 mmHg 74%
    19:00 +14°C° 0 mm 3 mps 736 mmHg 73%
    20:00 +14°C° 0 mm 3 mps 736 mmHg 73%
    21:00 +14°C° 0 mm 4 mps 736 mmHg 72%
    22:00 +14°C° 0.2 mm 4 mps 736 mmHg 73%
    23:00 +14°C° 0.2 mm 5 mps 735 mmHg 75%
    Show more